Regional Weather Roundup
Issued by NWS Newport/Morehead, NC

Current Version | Previous Version | Text Only | Print | Product List | Glossary On
Versions: 1 2 3 4 5 6 7 8 9 10 11 12 13 14 15 16 17 18 19 20 21 22 23 24 25 26 27 28 29 30 31 32 33 34 35 36 37 38 39 40 41 42 43 44 45 46 47 48 49 50
587 ASUS42 KMHX 221625 RWRMHX WEATHER ROUNDUP FOR EASTERN NORTH CAROLINA NATIONAL WEATHER SERVICE NEWPORT/MOREHEAD CITY NC 1100 AM EST WED FEB 22 2017 NOTE: "FAIR" INDICATES FEW OR NO CLOUDS BELOW 12,000 FEET WITH NO SIGNIFICANT WEATHER AND/OR OBSTRUCTIONS TO VISIBILITY NCZ015>017-031-032-045>047-102-103-221700- NORTH COAST CITY SKY/WX TMP DP RH WIND PRES REMARKS EDENTON PTSUNNY 69 53 55 SW8 30.04S ELIZABETH CITY PTSUNNY 66 50 56 S6 30.04F KITTY HAWK NOT AVBL MANTEO MOSUNNY 65 48 54 S12 30.03F $$ NCZ045>047-081-094-103-104-221700- CENTRAL COAST CITY SKY/WX TMP DP RH WIND PRES REMARKS FRISCO SUNNY 70 51 51 E6 30.04F $$ NCZ095-097-098-100-101-221700- SOUTHERN COAST CITY SKY/WX TMP DP RH WIND PRES REMARKS BEAUFORT SUNNY 72 53 51 SE7 30.03S CEDAR ISLAND NOT AVBL JACKSONVILLE MOSUNNY 71 55 56 E13 30.01F PINEY ISLAND MOSUNNY N/A N/A N/A E7 30.03F WILMINGTON MOSUNNY 70 57 63 SE10 30.01S $$ NCZ011>013-027>030-043-044-078>080-089-090>093-098-221700- COASTAL PLAIN CITY SKY/WX TMP DP RH WIND PRES REMARKS AHOSKIE N/A 65 51 60 S5 30.02F CLINTON SUNNY 70 56 61 SE8 30.01F ELIZABETHTOWN SUNNY 69 56 62 SE6 29.99F GOLDSBORO SUNNY 70 54 57 SE7 29.99F GREENVILLE MOSUNNY 70 52 52 S8 30.03F HAVELOCK PTSUNNY 71 52 50 SE9 30.03F KENANSVILLE NOT AVBL KINSTON SUNNY 70 52 52 S9 30.03F NEW BERN MOSUNNY 69 53 56 SE8 30.03F RICHLANDS MOSUNNY 70 53 54 SE7 30.02F ROCKY MOUNT MOSUNNY 67 53 61 VRB6 30.02F WASHINGTON MOSUNNY 68 52 56 SE6 30.02F WHITEVILLE MOSUNNY 72 54 53 SE9 29.98S $$ AMZ130-135-150-152-154-156-158-170-250-252-270-ANZ085-086-088-633-658-670-221700- MARINE OBSERVATIONS STATION/POSITION TIME TEMP WIND PRES WAVE SWELL AIR SEA DIR/SP/G HT/PER HT/PER (UTC) (F) (DEG/KT/KT) (MB) (FT/S) (FT/S) CHESAPEAKE LIGHT NOT AVBL 64 E VA BEACH 1550 57 54 190/ 4/ 4 1017.6 4/10 3/10 DUCK 1600 56 48 130/ 7/ 8 1016.6 2 E DUCK 1600 49 N/A 3/ 8 2/11 OREGON INLET 1600 63 51 110/ 6/ 8 1017.1 13E OREGON INLT NOT AVBL HATTERAS CG 1600 67 59 110/ 4/ 7 1017.0 DIAMOND BUOY 1550 67 74 140/ 8/ 12 1017.4 3/10 3/10 CAPE LOOKOUT 1600 64 100/ 6/ 6 1016.4 BEAUFORT LAB 1600 67 53 110/ 6/ 7 1015.8 30 SE NEW RVR IN 1608 68 160/ 14/ 16 1016.2 30 SE NEW RVR IN 1543 69 N/A 4/ 8 27 SE WRIGHTSVLE 1608 67 64 140/ 14/ 21 1015.4 5 SE WRIGHTSVLE 1608 60 57 70/ 4/ 8 1015.9 225 S CAPE HAT 1550 65 70 110/ 12/ 14 1017.2 5/ 8 5/ 8 41 SE CHARLESTON 1550 70 69 100/ 19/ 23 1013.3 4/ 5 2/13 $$

USA.gov is the U.S. government's official web portal to all federal, state and local government web resources and services.